Weather History for Pecs, Hungary

Change the Weather History Date:

Friday, January 25, 2013

  Actual Average Record
Temperature  
Mean Temperature 26 °F -  
Max Temperature 28 °F 40 °F - ()
Min Temperature 21 °F 28 °F - ()
Degree Days  
Heating Degree Days 40    
Moisture  
Dew Point 22 °F    
Average Humidity 81    
Maximum Humidity 100    
Minimum Humidity 63    
Precipitation  
Precipitation 0.00 in 0.04 in - ()
Sea Level Pressure  
Sea Level Pressure 29.84 in    
Wind  
Wind Speed 12 mph ()    
Max Wind Speed 18 mph    
Max Gust Speed 30 mph    
Visibility 4.1 miles    
Events Snow    
T = Trace of Precipitation, MM = Missing Value Source: Averaged Metar Reports

Daily Weather History Graph

Daily Weather History Graph

Search for Another Location

Airport:

Trip Planner

Search our weather history database for the weather conditions in past years. The results will help you decide how hot, cold, wet, or windy it might be!

Date:

Astronomy

Jan. 25, 2013 Rise Set
Actual Time 7:17 AM CET 4:42 PM CET
Civil Twilight 6:44 AM CET 5:14 PM CET
Nautical Twilight 6:08 AM CET 5:51 PM CET
Astronomical Twilight 5:32 AM CET 6:26 PM CET
Moon 3:22 PM CET (1/25) 5:45 AM CET (1/25)
Length of Visible Light 10h 30m
Length of Day
9h 25m
Waxing Gibbous, 97% of the Moon is Illuminated
Jan 25
Waxing Gibbous
Jan 27
Full
Feb 3
Last Quarter
Feb 10
New
Feb 17
First Quarter

Hourly Weather History & Observations

Time (CET) Temp. Windchill Dew Point Humidity Pressure Visibility Wind Dir Wind Speed Gust Speed Precip Events Conditions
12:45 AM 30.2 °F 18.5 °F 30.2 °F 100% 29.68 in 5.0 mi NNE 17.3 mph - N/A Snow Light Snow
1:00 AM 31 °F - 30 °F 93% 29.70 in 5 mi NNE 17.9 mph - - Snow Light Snow
1:45 AM 30.2 °F 19.3 °F 28.4 °F 93% 29.68 in 6.2 mi NNE 15.0 mph - N/A Snow Light Snow
2:15 AM 30.2 °F 18.9 °F 28.4 °F 93% 29.68 in - North 16.1 mph 27.6 mph N/A   Unknown
2:45 AM 30.2 °F 18.9 °F 28.4 °F 93% 29.68 in 6.2 mi North 16.1 mph - N/A Snow Light Snow
3:45 AM 30.2 °F 19.3 °F 28.4 °F 93% 29.71 in 6.2 mi North 15.0 mph 26.5 mph N/A Snow Low Drifting Snow
4:45 AM 30.2 °F 19.3 °F 26.6 °F 86% 29.71 in 6.2 mi North 15.0 mph 26.5 mph N/A Snow Low Drifting Snow
5:15 AM 28.4 °F 17.5 °F 24.8 °F 86% 29.74 in 6.2 mi North 13.8 mph - N/A Snow Low Drifting Snow
5:45 AM 28.4 °F 18.0 °F 24.8 °F 86% 29.74 in 6.2 mi North 12.7 mph - N/A Snow Low Drifting Snow
6:00 AM - - - N/A% - 6.2 mi North 11.5 mph - N/A   Overcast
6:15 AM 28.4 °F 18.0 °F 24.8 °F 86% 29.77 in 6.2 mi North 12.7 mph - N/A Snow Low Drifting Snow
6:45 AM 26.6 °F 17.5 °F 23.0 °F 86% 29.77 in 6.2 mi NNW 9.2 mph - N/A Snow Low Drifting Snow
7:00 AM 27 °F - 23 °F 79% 29.81 in 12 mi NNW 8.9 mph - - Snow Low Drifting Snow
7:06 AM 26.6 °F 19.1 °F 23.0 °F 86% 29.83 in - NNW 6.9 mph - N/A   Unknown
7:15 AM 26.6 °F 19.1 °F 23.0 °F 86% 29.80 in - NNW 6.9 mph - N/A   Clear
7:37 AM 26.6 °F 17.5 °F 23.0 °F 86% 29.83 in 2.8 mi North 9.2 mph - N/A   Mostly Cloudy
7:45 AM 26.6 °F 16.8 °F 23.0 °F 86% 29.80 in 2.8 mi North 10.4 mph - N/A   Mostly Cloudy
8:15 AM 26.6 °F 15.7 °F 23.0 °F 86% 29.80 in 2.5 mi NNW 12.7 mph - N/A   Mostly Cloudy
8:45 AM 26.6 °F 18.2 °F 23.0 °F 86% 29.83 in 2.8 mi North 8.1 mph - N/A   Mostly Cloudy
9:00 AM - - - N/A% - 3.1 mi North 13.8 mph 27.6 mph N/A   Unknown
9:15 AM 28.4 °F 19.7 °F 23.0 °F 80% 29.83 in 2.5 mi NNW 9.2 mph - N/A   Mostly Cloudy
9:45 AM 28.4 °F 18.0 °F 23.0 °F 80% 29.83 in 2.5 mi NNW 12.7 mph - N/A   Mostly Cloudy
10:04 AM 28.4 °F 17.5 °F 23.0 °F 80% 29.83 in - North 13.8 mph 27.6 mph N/A   Unknown
10:15 AM 28.4 °F 16.2 °F 21.2 °F 74% 29.83 in 2.8 mi North 17.3 mph - N/A   Mostly Cloudy
10:45 AM 28.4 °F 17.5 °F 23.0 °F 80% 29.86 in 2.8 mi North 13.8 mph - N/A   Overcast
11:15 AM 28.4 °F 17.5 °F 23.0 °F 80% 29.86 in 2.8 mi North 13.8 mph - N/A   Overcast
11:45 AM 28.4 °F 18.0 °F 23.0 °F 80% 29.86 in 2.5 mi NNW 12.7 mph - N/A Snow Light Snow
12:00 PM - - - N/A% - 3.1 mi North 13.8 mph 27.6 mph N/A   Mist
12:15 PM 28.4 °F 18.0 °F 23.0 °F 80% 29.86 in 2.5 mi NNW 12.7 mph - N/A Snow Light Snow
12:45 PM 28.4 °F 16.2 °F 21.2 °F 74% 29.86 in 2.5 mi NNW 17.3 mph - N/A   Overcast
1:00 PM 28 °F - 20 °F 63% 29.88 in 2 mi NNW 17.9 mph - - Snow Light Snow
1:14 PM 28.4 °F 16.6 °F 21.2 °F 74% 29.83 in - NNW 16.1 mph 29.9 mph N/A   Unknown
1:15 PM 28.4 °F 17.5 °F 21.2 °F 74% 29.83 in 2.5 mi NNW 13.8 mph - N/A   Overcast
1:45 PM 28.4 °F 17.5 °F 21.2 °F 74% 29.86 in 2.5 mi NNW 13.8 mph - N/A   Overcast
2:15 PM 28.4 °F 17.5 °F 21.2 °F 74% 29.83 in 2.5 mi NNW 13.8 mph - N/A   Overcast
2:45 PM 28.4 °F 16.6 °F 19.4 °F 69% 29.86 in 3.7 mi NNW 16.1 mph - N/A   Overcast
3:00 PM - - - N/A% - 3.1 mi North 13.8 mph - N/A   Mist
3:15 PM 28.4 °F 16.6 °F 21.2 °F 74% 29.86 in 3.7 mi North 16.1 mph - N/A   Overcast
3:45 PM 28.4 °F 17.0 °F 19.4 °F 69% 29.86 in 3.7 mi North 15.0 mph - N/A   Overcast
4:12 PM 28.4 °F 19.1 °F 21.2 °F 74% 29.95 in 3.1 mi North 10.4 mph - N/A   Overcast
4:15 PM 28.4 °F 18.5 °F 21.2 °F 74% 29.89 in 3.1 mi North 11.5 mph - N/A   Overcast
4:38 PM 26.6 °F 18.2 °F 21.2 °F 80% 29.95 in - North 8.1 mph - N/A   Unknown
4:45 PM 26.6 °F 18.2 °F 21.2 °F 80% 29.89 in 3.1 mi North 8.1 mph - N/A   Overcast
5:15 PM 26.6 °F 17.5 °F 21.2 °F 80% 29.89 in 3.1 mi NNW 9.2 mph - N/A   Overcast
5:45 PM 26.6 °F 18.2 °F 21.2 °F 80% 29.92 in 3.1 mi NNW 8.1 mph - N/A   Mostly Cloudy
6:15 PM 26.6 °F 17.5 °F 19.4 °F 74% 29.92 in 3.7 mi North 9.2 mph - N/A   Mostly Cloudy
6:45 PM 26.6 °F 16.8 °F 19.4 °F 74% 29.92 in 3.7 mi North 10.4 mph - N/A   Mostly Cloudy
7:00 PM 26 °F - 20 °F 69% 29.96 in 4 mi North 8.9 mph - -   Partly Cloudy
7:15 PM 24.8 °F 14.6 °F 19.4 °F 80% 29.92 in 5.0 mi North 10.4 mph - N/A   Mostly Cloudy
7:45 PM 24.8 °F 13.4 °F 19.4 °F 80% 29.92 in 5.0 mi NNW 12.7 mph - N/A   Mostly Cloudy
8:15 PM 24.8 °F 15.3 °F 19.4 °F 80% 29.95 in 5.0 mi NNW 9.2 mph - N/A   Mostly Cloudy
8:45 PM 24.8 °F 14.0 °F 19.4 °F 80% 29.95 in 5.0 mi NNW 11.5 mph - N/A   Mostly Cloudy
9:45 PM 23.0 °F 13.1 °F 17.6 °F 80% 29.95 in 5.0 mi North 9.2 mph - N/A   Mostly Cloudy
10:45 PM 23.0 °F 14.7 °F 17.6 °F 80% 29.95 in 5.0 mi NNW 6.9 mph - N/A   Mostly Cloudy
11:45 PM 21.2 °F 10.9 °F 17.6 °F 86% 29.95 in 5.0 mi NNW 9.2 mph - N/A   Mostly Cloudy